TimeMST,TemperatureF,Dew PointF,Humidity,Sea Level PressureIn,VisibilityMPH,Wind Direction,Wind SpeedMPH,Gust SpeedMPH,PrecipitationIn,Events,Conditions,WindDirDegrees,DateUTC
12:53 AM,28.9,18.0,64,30.25,10.0,North,4.6,-,N/A,,Clear,360,2013-12-17 07:53:00
1:53 AM,28.0,18.0,66,30.25,10.0,NNW,4.6,-,N/A,,Unknown,330,2013-12-17 08:53:00
2:53 AM,30.9,19.0,61,30.27,10.0,WNW,4.6,-,N/A,,Clear,290,2013-12-17 09:53:00
3:53 AM,25.0,17.1,72,30.30,10.0,Calm,Calm,-,N/A,,Clear,0,2013-12-17 10:53:00
4:53 AM,27.0,18.0,69,30.32,10.0,WNW,4.6,-,N/A,,Clear,290,2013-12-17 11:53:00
5:53 AM,24.1,17.1,75,30.36,10.0,West,9.2,-,N/A,,Clear,260,2013-12-17 12:53:00
6:53 AM,26.1,18.0,71,30.38,10.0,West,6.9,-,N/A,,Clear,280,2013-12-17 13:53:00
7:53 AM,30.0,19.9,66,30.38,10.0,Calm,Calm,-,N/A,,Clear,0,2013-12-17 14:53:00
8:53 AM,36.0,21.9,57,30.39,10.0,Calm,Calm,-,N/A,,Clear,0,2013-12-17 15:53:00
9:53 AM,41.0,24.1,51,30.39,10.0,Variable,3.5,-,N/A,,Clear,0,2013-12-17 16:53:00
10:53 AM,46.0,23.0,40,30.36,10.0,South,4.6,-,N/A,,Clear,180,2013-12-17 17:53:00
11:53 AM,48.9,23.0,36,30.30,10.0,South,6.9,-,N/A,,Clear,190,2013-12-17 18:53:00
12:53 PM,51.1,21.0,31,30.27,10.0,SSW,10.4,-,N/A,,Clear,210,2013-12-17 19:53:00
1:53 PM,54.0,19.0,25,30.23,10.0,WSW,10.4,-,N/A,,Clear,240,2013-12-17 20:53:00
2:53 PM,55.0,17.1,23,30.20,10.0,SW,10.4,-,N/A,,Clear,220,2013-12-17 21:53:00
3:53 PM,51.1,17.1,26,30.19,10.0,South,8.1,-,N/A,,Clear,190,2013-12-17 22:53:00
4:53 PM,45.0,17.1,33,30.17,10.0,South,9.2,-,N/A,,Clear,180,2013-12-17 23:53:00
5:53 PM,46.9,17.1,30,30.15,10.0,SSW,13.8,-,N/A,,Clear,200,2013-12-18 00:53:00
6:53 PM,42.1,16.0,35,30.14,10.0,SSW,12.7,-,N/A,,Clear,210,2013-12-18 01:53:00
7:53 PM,39.0,16.0,39,30.12,10.0,SW,11.5,-,N/A,,Clear,230,2013-12-18 02:53:00
8:53 PM,41.0,17.1,38,30.08,10.0,SW,12.7,-,N/A,,Clear,230,2013-12-18 03:53:00
9:53 PM,39.9,17.1,40,30.06,10.0,SW,10.4,-,N/A,,Clear,230,2013-12-18 04:53:00
10:53 PM,42.1,17.1,37,30.03,10.0,WSW,16.1,-,N/A,,Clear,240,2013-12-18 05:53:00
11:53 PM,37.0,17.1,44,30.01,10.0,WSW,10.4,-,N/A,,Clear,250,2013-12-18 06:53:00